Regional Weather Roundup
Issued by NWS

Home | Current Version | Previous Version | Graphics & Text | Print | Product List | Glossary On
Versions: 1 2 3 4 5 6 7 8 9 10 11 12 13 14 15 16 17 18 19 20 21 22 23 24 25 26 27 28 29 30 31 32 33 34 35 36 37 38 39 40 41 42 43 44 45 46 47 48 49 50
000
ASUS43 KLMK 301902
RWRKY
KENTUCKY REGIONAL WEATHER ROUNDUP
NATIONAL WEATHER SERVICE LOUISVILLE KY
300 PM EDT THU MAR 30 2017

NOTE "FAIR" INDICATES FEW OR NO CLOUDS BELOW 12,000 FEET
WITH NO SIGNIFICANT WEATHER AND/OR OBSTRUCTIONS TO VISIBILITY.

KYZ001>023-026-027-061>063-070>075-302000-
WESTERN AND SOUTH CENTRAL KENTUCKY

CITY           SKY/WX    TMP DP  RH WIND       PRES   REMARKS
PADUCAH        PTSUNNY   77  54  44 S20G31    29.54F
HENDERSON      PTSUNNY   77  55  47 S23G36    29.56F
OWENSBORO      CLOUDY    76  55  48 S22G28    29.59F
HOPKINSVILLE   PTSUNNY   75  52  44 SW22G38   29.64S
BOWLING GREEN  MOSUNNY   77  56  48 S18G31    29.66F
GLASGOW        NOT AVBL
$$

KYZ024-025-028>034-038-045-046-053-302000-
NORTH CENTRAL KENTUCKY

CITY           SKY/WX    TMP DP  RH WIND       PRES   REMARKS
LOUISVILLE/SDF CLOUDY    78  51  38 SW22G35   29.64F
LOUISVILLE/LOU CLOUDY    77  52  41 S13G25    29.65F
FORT KNOX      CLOUDY    75  57  52 SW20G28   29.63F
$$

KYZ035>037-039>044-047>052-055>060-089>105-302000-
NORTHEAST KENTUCKY

CITY           SKY/WX    TMP DP  RH WIND       PRES   REMARKS
LEXINGTON      CLOUDY    79  48  33 S17G25    29.68F
COVINGTON      PTSUNNY   78  51  38 S15G25    29.65F
FRANKFORT      CLOUDY    78  48  34 SW10G22   29.67F
$$

KYZ054-064>069-076>088-106>120-302000-
SOUTHEAST KENTUCKY

CITY           SKY/WX    TMP DP  RH WIND       PRES   REMARKS
JACKSON        MOSUNNY   80  54  40 S8G17     29.75S
LONDON         MOSUNNY   78  47  33 S17G33    29.74F
SOMERSET       CLOUDY    77  45  31 S17G25    29.72F
MIDDLESBORO    CLOUDY    78  53  43 S12G20    29.79F
MONTICELLO     CLOUDY    79  51  37 S21G26    29.70F
$$





USA.gov is the U.S. government's official web portal to all federal, state and local government web resources and services.